{"data":{"norad_id":66722,"intl_designator":"2025-276BJ","name":"FLOCK 4H-19","alt_names":[],"object_type":"PAYLOAD","status":"ACTIVE","operator":null,"country":"US","launch_date":"2025-11-28","launch_site_code":"AFWTR","launch_vehicle":null,"mission":null,"orbit_class":"UNKNOWN","rcs_meters":null,"size_class":null,"mass_kg":null,"dimensions":null,"purposes":["earth_obs"],"wikipedia_slug":null,"has_3d_model":false,"image_url":null,"decayed_at":null,"tle_current":{"epoch":"2026-09-19T10:19:55.277760Z","epoch_age_seconds":114423,"freshness":"FRESH","line1":"1 66722U 25276BJ  26262.43050090  .00004062  00000+0  18146-3 0  9998","line2":"2 66722  97.4098 334.8566 0001137  31.1634 328.9669 15.21909379 44060","mean_motion":15.21909379,"eccentricity":0.0001137,"inclination_deg":97.4098,"raan_deg":334.8566,"arg_perigee_deg":31.1634,"mean_anomaly_deg":328.9669,"bstar":0.00018146,"rev_number":4406,"period_min":94.617985792701,"perigee_km":499.29962244651,"apogee_km":500.86372937341,"semimajor_km":6878.21867591,"source":"CELESTRAK","updated_at":"2026-09-20T09:00:34.751089Z"}}}